Regional Weather Roundup
Issued by NWS

Home | Current Version | Previous Version | Text Only | Print | Product List | Glossary Off
Versions: 1 2 3 4 5 6 7 8 9 10 11 12 13 14 15 16 17 18 19 20 21 22 23 24 25 26 27 28 29 30 31 32 33 34 35 36 37 38 39 40 41 42 43 44 45 46 47 48 49 50

000
ASUS43 KOAX 121710
RWRNE

WEATHER ROUNDUP FOR NEBRASKA
NATIONAL WEATHER SERVICE OMAHA NE
1200 PM CDT SAT JUL 12 2014

NOTES: SATELLITE DATA IS BEING USED TO AUGMENT CLOUD COVER ABOVE
       12000 FEET.
       "FAIR" INDICATES FEW OR NO CLOUDS BELOW 12,000 FEET WITH NO
       SIGNIFICANT WEATHER AND/OR OBSTRUCTIONS TO VISIBILITY.

  * THESE STATIONS DO NOT REPORT WEATHER SUCH AS RAIN...SNOW OR FOG.

NEZ001>004-019>022-054>056-121800-
NEBRASKA PANHANDLE

CITY           SKY/WX    TMP DP  RH WIND       PRES   REMARKS
SCOTTSBLUFF    CLOUDY    69  59  70 SE7       30.23R
ALLIANCE       PTSUNNY   72  60  66 N10       30.21S
CHADRON        PTSUNNY   74  57  55 NW3       30.19R
KIMBALL        CLOUDY    66  61  84 NW7       30.26R
SIDNEY         CLOUDY    71  60  68 NE14      30.23R
$$

NEZ057>060-069>072-079>082-121800-
SOUTHWEST NEBRASKA

CITY           SKY/WX    TMP DP  RH WIND       PRES   REMARKS
NORTH PLATTE   CLOUDY    73  66  78 N8        30.10S
IMPERIAL       CLOUDY    75  66  73 N16       30.14R
LEXINGTON      CLOUDY    76  69  79 N10       30.06R
MCCOOK         MOSUNNY   82  69  64 N15       30.06R
OGALLALA       CLOUDY    73  63  70 N13G18    30.15R
$$

NEZ005>010-023>029-035>040-094-121800-
NORTH CENTRAL NEBRASKA

CITY           SKY/WX    TMP DP  RH WIND       PRES   REMARKS
VALENTINE      CLOUDY    71  64  78 N9        30.13R
AINSWORTH      PTSUNNY   74  66  76 NE6       30.11S
BROKEN BOW     CLOUDY    71  67  87 N14       30.09R
O`NEILL        CLOUDY    68  64  89 NE9       30.10S
ORD            CLOUDY    71  66  84 N13       30.05R
THEDFORD       PTSUNNY   77  67  71 N8        30.12S
$$

NEZ041-046>049-061>064-073>077-083>087-121800-
SOUTH CENTRAL NEBRASKA

CITY           SKY/WX    TMP DP  RH WIND       PRES   REMARKS
GRAND ISLAND   MOSUNNY   84  68  58 NW8       30.02R
AURORA         MOSUNNY   83  70  66 W3        30.00S
HASTINGS       MOSUNNY   82  63  52 W8        30.01R
HEBRON         MOSUNNY   90  68  48 SW10      30.00R HX  93
HOLDREGE       MOSUNNY   80  66  62 N9        30.04R
KEARNEY *      MOSUNNY   79  70  73 N14       30.04R
YORK           PTSUNNY   82  70  65 SW7       30.00S
$$

NEZ011>018-030>034-042>045-121800-
NORTHEAST NEBRASKA

CITY           SKY/WX    TMP DP  RH WIND       PRES   REMARKS
NORFOLK        LGT RAIN  72  68  87 N9        30.04R
ALBION         CLOUDY    72  66  83 N10       30.05R
BLAIR          CLOUDY    79  70  73 CALM      29.98S
FREMONT        CLOUDY    80  71  74 CALM      29.99S
TEKAMAH        CLOUDY    78  70  76 NE3       29.98S
WAYNE          CLOUDY    73  69  88 N10G16    30.04F
$$

NEZ050>053-065>068-078-088>093-121800-
SOUTHEAST NEBRASKA

CITY           SKY/WX    TMP DP  RH WIND       PRES   REMARKS
LINCOLN        PTSUNNY   87  68  52 SW12      29.98F HX  90
OMAHA EPPLEY   CLOUDY    82  71  69 SE5       29.97F
BEATRICE       PTSUNNY   84  69  60 S9        29.98F
FALLS CITY     MOSUNNY   88  70  55 SW5       29.99F HX  93
NEBRASKA CITY  PTSUNNY   84  70  63 S12       29.99S
PLATTSMOUTH    CLOUDY    85  68  55 SW8       29.99R
$$

NEZ044-045-051>053-067-121800-
OMAHA AREA

CITY           SKY/WX    TMP DP  RH WIND       PRES   REMARKS
OMAHA EPPLEY   CLOUDY    82  71  69 SE5       29.97F
BLAIR          CLOUDY    79  70  73 CALM      29.98S
FREMONT        CLOUDY    80  71  74 CALM      29.99S
MILLARD        CLOUDY    84  71  66 CALM      29.98S
PLATTSMOUTH    CLOUDY    85  68  55 SW8       29.99R
WAHOO          FAIR      83  72  68 S6        29.97F
$$


USA.gov is the U.S. government's official web portal to all federal, state and local government web resources and services.